Weather History for KFOA - October, 2012

Change the Weather History Date:

Friday, October 12, 2012

  Actual Average (KEVV) Record (KEVV)
Temperature  
Mean Temperature 58 °F 59 °F  
Max Temperature 66 °F 71 °F 87 °F (1989)
Min Temperature 49 °F 46 °F 29 °F (1988)
Degree Days  
Heating Degree Days 8 7  
Month to date heating degree days 72  
Since 1 July heating degree days 119  
Cooling Degree Days 0 1  
Month to date cooling degree days 19  
Year to date cooling degree days 1385  
Growing Degree Days 8 (Base 50)    
Moisture  
Dew Point 48 °F    
Average Humidity 70    
Maximum Humidity 94    
Minimum Humidity 52    
Precipitation  
Precipitation 0.00 in 0.10 in 4.18 in (1901)
Month to date precipitation 1.22  
Year to date precipitation 35.19  
Snow  
Snow 0.00 in 0.00 in 0.00 in (2002)
Month to date snowfall 0.0  
Since 1 July snowfall 0.0  
Since 1 September snowfall 0.0  
Snow Depth -    
Sea Level Pressure  
Sea Level Pressure 30.30 in    
Wind  
Wind Speed 4 mph (ENE)    
Max Wind Speed 16 mph    
Max Gust Speed -    
Visibility 10 miles    
Events      
T = Trace of Precipitation, MM = Missing Value Source: NWS Daily Summary

Daily Weather History Graph

Daily Weather History Graph

Search for Another Location

Airport or City:

Trip Planner

Search our weather history database for the weather conditions in past years. The results will help you decide how hot, cold, wet, or windy it might be!

Date:

Astronomy

Oct. 12, 2012 Rise Set
Actual Time 7:00 AM CDT 6:19 PM CDT
Civil Twilight 6:33 AM CDT 6:45 PM CDT
Nautical Twilight 6:03 AM CDT 7:16 PM CDT
Astronomical Twilight 5:32 AM CDT 7:47 PM CDT
Moon 3:45 AM CDT (10/12) 4:27 PM CDT (10/12)
Length of Visible Light 12h 11m
Length of Day
11h 18m
Waning Crescent, 10% of the Moon is Illuminated
Oct 12
Waning Crescent
Oct 15
New
Oct 21
First Quarter
Oct 29
Full
Nov 6
Last Quarter

Hourly Weather History & Observations

Time (CDT) Temp. Dew Point Humidity Pressure Visibility Wind Dir Wind Speed Gust Speed Precip Events Conditions
1:36 AM 53.6 °F 46.4 °F 77% 30.22 in 10.0 mi Calm Calm - N/A   Overcast
2:35 AM 53.2 °F 48.6 °F 84% 30.22 in 10.0 mi Calm Calm - N/A   Overcast
5:14 AM 51.8 °F 50.0 °F 94% 30.24 in 10.0 mi Calm Calm - N/A   Mostly Cloudy
5:34 AM 51.8 °F 50.0 °F 94% 30.25 in 10.0 mi Calm Calm - N/A   Clear
5:54 AM 51.8 °F 48.2 °F 88% 30.25 in 10.0 mi North 3.5 mph - N/A   Clear
6:35 AM 49.3 °F 46.4 °F 90% 30.27 in 10.0 mi Calm Calm - N/A   Clear
6:55 AM 49.3 °F 45.3 °F 86% 30.28 in 10.0 mi Calm Calm - N/A   Clear
7:15 AM 49.3 °F 45.0 °F 85% 30.28 in 10.0 mi North 3.5 mph - N/A   Clear
7:35 AM 49.3 °F 44.8 °F 84% 30.31 in 10.0 mi Calm Calm - N/A   Clear
7:55 AM 49.5 °F 44.6 °F 83% 30.32 in 10.0 mi North 3.5 mph - N/A   Clear
8:15 AM 50.4 °F 44.8 °F 81% 30.33 in 10.0 mi Calm Calm - N/A   Clear
8:35 AM 51.4 °F 45.3 °F 80% 30.34 in 10.0 mi NE 10.4 mph - N/A   Clear
8:55 AM 52.9 °F 45.9 °F 77% 30.34 in 10.0 mi NE 16.1 mph - N/A   Clear
9:15 AM 53.4 °F 45.9 °F 76% 30.35 in 10.0 mi ENE 11.5 mph - N/A   Clear
9:35 AM 54.7 °F 45.9 °F 72% 30.35 in 10.0 mi NE 12.7 mph - N/A   Clear
9:55 AM 55.6 °F 46.0 °F 70% 30.35 in 10.0 mi ENE 12.7 mph - N/A   Clear
10:15 AM 56.1 °F 46.0 °F 69% 30.35 in 10.0 mi ENE 10.4 mph - N/A   Clear
10:35 AM 56.8 °F 46.0 °F 67% 30.34 in 10.0 mi ENE 12.7 mph - N/A   Clear
10:55 AM 57.9 °F 46.4 °F 65% 30.35 in 10.0 mi ENE 11.5 mph - N/A   Clear
11:15 AM 58.8 °F 46.6 °F 64% 30.35 in 10.0 mi East 9.2 mph - N/A   Clear
11:35 AM 60.4 °F 47.7 °F 63% 30.36 in 10.0 mi ENE 8.1 mph - N/A   Clear
11:55 AM 60.4 °F 46.9 °F 61% 30.37 in 10.0 mi ENE 4.6 mph - N/A   Clear
12:15 PM 61.0 °F 47.1 °F 60% 30.37 in 10.0 mi East 5.8 mph - N/A   Clear
12:35 PM 62.6 °F 48.2 °F 59% 30.37 in 10.0 mi East 3.5 mph - N/A   Clear
12:55 PM 62.8 °F 46.9 °F 56% 30.36 in 10.0 mi ENE 6.9 mph - N/A   Clear
1:35 PM 64.4 °F 48.2 °F 56% 30.35 in 10.0 mi ESE 4.6 mph - N/A   Clear
1:55 PM 64.4 °F 47.8 °F 55% 30.34 in 10.0 mi Calm Calm - N/A   Clear
2:15 PM 64.9 °F 47.7 °F 54% 30.33 in 10.0 mi North 3.5 mph - N/A   Clear
2:35 PM 65.7 °F 48.7 °F 54% 30.32 in 5.0 mi East 5.8 mph - N/A   Haze
2:55 PM 66.2 °F 48.2 °F 52% 30.31 in 7.0 mi Calm Calm - N/A   Clear
3:15 PM 66.0 °F 48.2 °F 53% 30.31 in 10.0 mi Calm Calm - N/A   Clear
3:35 PM 65.8 °F 47.7 °F 52% 30.31 in 10.0 mi Calm Calm - N/A   Clear
3:55 PM 65.7 °F 48.0 °F 53% 30.30 in 10.0 mi ENE 4.6 mph - N/A   Clear
4:15 PM 65.3 °F 47.7 °F 53% 30.29 in 10.0 mi ENE 5.8 mph - N/A   Clear
4:35 PM 65.3 °F 48.7 °F 55% 30.29 in 10.0 mi ENE 3.5 mph - N/A   Clear
4:55 PM 65.3 °F 48.0 °F 54% 30.29 in 4.0 mi East 4.6 mph - N/A   Haze
5:15 PM 65.3 °F 48.2 °F 54% 30.28 in 10.0 mi East 4.6 mph - N/A   Clear
5:35 PM 64.4 °F 48.2 °F 56% 30.28 in 10.0 mi ENE 5.8 mph - N/A   Clear
5:55 PM 63.5 °F 48.9 °F 59% 30.28 in 10.0 mi ENE 3.5 mph - N/A   Clear
6:15 PM 62.6 °F 48.7 °F 60% 30.28 in 10.0 mi ENE 4.6 mph - N/A   Scattered Clouds
6:35 PM 60.1 °F 48.7 °F 66% 30.28 in 10.0 mi NE 3.5 mph - N/A   Scattered Clouds
6:55 PM 59.2 °F 49.1 °F 69% 30.28 in 10.0 mi NE 3.5 mph - N/A   Clear
7:15 PM 58.8 °F 49.3 °F 71% 30.28 in 10.0 mi Calm Calm - N/A   Clear
7:35 PM 55.4 °F 48.9 °F 79% 30.29 in 10.0 mi Calm Calm - N/A   Clear
8:15 PM 57.6 °F 48.9 °F 73% 30.28 in 10.0 mi East 3.5 mph - N/A   Scattered Clouds
8:55 PM 57.2 °F 48.2 °F 72% 30.28 in 10.0 mi East 4.6 mph - N/A   Scattered Clouds
9:15 PM 55.8 °F 48.2 °F 76% 30.28 in 10.0 mi East 3.5 mph - N/A   Clear
9:35 PM 56.3 °F 48.2 °F 74% 30.28 in 10.0 mi East 5.8 mph - N/A   Clear
9:55 PM 55.6 °F 48.0 °F 76% 30.28 in 10.0 mi East 3.5 mph - N/A   Clear
10:15 PM 54.0 °F 48.0 °F 80% 30.27 in 10.0 mi East 3.5 mph - N/A   Clear
10:35 PM 55.4 °F 48.2 °F 77% 30.27 in 10.0 mi East 3.5 mph - N/A   Clear
10:55 PM 53.6 °F 48.2 °F 82% 30.27 in 10.0 mi ESE 4.6 mph - N/A   Clear
11:15 PM 53.8 °F 47.8 °F 80% 30.26 in 10.0 mi East 4.6 mph - N/A   Clear
11:35 PM 52.9 °F 48.0 °F 84% 30.26 in 10.0 mi ESE 3.5 mph - N/A   Clear
11:55 PM 51.1 °F 47.3 °F 87% 30.26 in 10.0 mi SE 3.5 mph - N/A   Clear